Location: Alma
(38.7220°N, 88.9090°W)
Time: 20:44:12
(UTC-06:00)

Vanguard 2 - Pass Details

Date: 17 November 2019
Orbit: 553 x 2938 km, 32.9° (Epoch: 13 December)

Event Time Altitude Azimuth Distance (km) Brightness Sun altitude
Rises 07:49:50 0° 228° (SW) 5,638 11.8 11.0°
Reaches altitude 10° 07:54:35 10° 220° (SW) 4,217 11.3 11.7°
Maximum altitude 08:03:27 32° 163° (SSE) 2,098 10.8 13.1°
Drops below altitude 10° 08:09:17 10° 103° (ESE) 2,725 11.7 14.0°
Sets 08:11:40 0° 92° (E) 3,431 11.8 14.4°
